Regional Weather Roundup
Issued by NWS

Home | Current Version | Previous Version | Text Only | Print | Product List | Glossary On
Versions: 1 2 3 4 5 6 7 8 9 10 11 12 13 14 15 16 17 18 19 20 21 22 23 24 25 26 27 28 29 30 31 32 33 34 35 36 37 38 39 40 41 42 43 44 45 46 47 48 49 50
480
ASUS44 KJAN 240703
RWRMS

MISSISSIPPI HOURLY WEATHER ROUNDUP
NATIONAL WEATHER SERVICE JACKSON MS
200 AM CDT THU APR 24 2014

NOTE: "FAIR: INDICATES FEW OR NO CLOUDS BELOW 12,000 FEET WITH NO
SIGNIFICANT WEATHER AND/OR OBSTRUCTIONS TO VISIBILITY.

MSZ001>002-007>008-010>013-018>021-025>028-034>036-240800-
NORTHWEST MISSISSIPPI

CITY           SKY/WX    TMP DP  RH WIND       PRES   REMARKS
CLARKSDALE       N/A     55  46  71 CALM      29.91F
CLEVELAND      FAIR      56  52  85 CALM      29.89F
GREENWOOD      CLEAR     54  47  77 E6        29.91F
GREENVILLE     CLEAR     57  51  80 SE6       29.88F
GRENADA        FAIR      46  45  93 CALM      29.93F
OLIVE BRANCH   CLEAR     54  41  62 E3        29.93F
OXFORD         FAIR      50  43  76 CALM      29.95S
TUNICA         MOSUNNY   54  45  71 NE3       29.92F
$$

MSZ003>006-009-014>017-022>024-029>033-037>039-240800-
NORTHEAST MISSISSIPPI

CITY           SKY/WX    TMP DP  RH WIND       PRES   REMARKS
BELMONT        FAIR      45  44  93 CALM      29.95F
COLUMBUS AFB   CLEAR     49  49  99 CALM      29.93F
CORINTH        FAIR      46  45  93 W3        29.96R
GOLDN TRIANGLE CLEAR     54  45  71 CALM      29.96S
STARKVILLE     FAIR      50  46  87 CALM      29.93F
TUPELO         CLEAR     50  45  83 CALM      29.94F
$$

MSZ040-058-240800-
CENTRAL MISSISSIPPI

CITY           SKY/WX    TMP DP  RH WIND       PRES   REMARKS
JACKSON INTL   CLEAR     56  52  86 CALM      29.91F
JACKSON HAWKNS CLEAR     59  52  77 CALM      29.91F
MERIDIAN KEY   MOCLDY    55  52  89 CALM      29.93F
MERIDIAN NAS   PTCLDY    53  50  89 CALM      29.93F
RAYMOND        FAIR      50  46  87 CALM      29.91F FOG
VICKSBURG      CLEAR     58  55  90 SE3       29.90F
$$

MSZ059>079-240800-
SOUTH MISSISSIPPI

CITY           SKY/WX    TMP DP  RH WIND       PRES   REMARKS
BROOKHAVEN     FAIR      55  54  94 CALM      29.93F
HATTIESBURG    MOCLDY    62  60  93 SE3       29.92S
MCCOMB         MOCLDY    63  59  87 SW3       29.92F
NATCHEZ        CLEAR     61  48  63 CALM      29.91S
PINE BELT      CLEAR     57  54  88 CALM      29.93S
$$

MSZ080>082-240800-
COASTAL MISSISSIPPI

CITY           SKY/WX    TMP DP  RH WIND       PRES   REMARKS
BILOXI         CLEAR     68  67  97 W3        29.91F
PASCAGOULA     FOG       61  60  97 CALM      29.92S VSB 1/2
GULFPORT       CLEAR     68  64  87 CALM      29.91S FOG
$$



USA.gov is the U.S. government's official web portal to all federal, state and local government web resources and services.